#timestamp,LO_Frequency,Hit,StdDev 
1628190015.1,286046999.7,N
1628190016.0,286046999.7,N
1628190035.8,286046999.9,N
1628190055.6,286047000.4,N
1628190075.5,286047000.1,N
1628190095.3,286047000.6,N
1628190115.1,286046998.5,N
1628190135.9,286046998.8,N
1628190155.7,286046997.0,N
1628190175.6,286046997.7,N
1628190195.4,286046999.5,N
1628190215.2,286046998.4,N
1628190235.1,286046997.1,N
1628190236.0,286046997.1,N
1628190255.8,286046997.2,N
1628190275.6,286046994.9,N
1628190295.5,286046997.7,N
1628190315.3,286046997.1,N
1628190335.2,286046997.4,N
1628190355.9,286046995.0,N
1628190375.7,286046995.3,N
1628190395.6,286046995.9,N
1628190415.4,286046993.4,Y
1628190435.2,286046996.2,P
1628190455.1,286046995.9,P
1628190456.0,286046995.9,P
1628190475.8,286046993.5,Y
1628190495.7,286046996.8,P
1628190515.5,286046996.6,P
1628190535.3,286046996.8,P
1628190555.2,286046995.3,Y
1628190575.0,286046996.9,P
1628190575.9,286046996.9,P
1628190595.8,286046997.4,P
1628190615.6,286046997.0,Y
1628190635.4,286047000.6,P
1628190655.3,286047000.9,N
1628190675.1,286047000.3,N
1628190695.8,286047000.8,N
1628190715.7,286047000.0,N
1628190735.5,286047000.9,N
1628190755.4,286047000.7,N
1628190775.2,286046998.7,N
1628190795.0,286047001.2,N
1628190795.9,286047001.2,N
1628190815.8,286047001.1,N
1628190835.6,286046998.4,N
1628190855.5,286046996.5,N
1628190875.3,286046998.3,N
1628190895.1,286047000.8,N
1628190915.9,286046998.5,N
1628190935.7,286047000.8,N
1628190955.5,286047000.3,N
1628190975.4,286047000.5,N
1628190995.2,286047000.2,N
1628191015.0,286047001.0,N
1628191016.0,286047001.0,N
1628191035.8,286046998.2,N
1628191055.6,286046998.5,N
1628191075.5,286047001.1,N
1628191095.3,286046998.2,N
1628191115.1,286047001.2,N
1628191135.9,286047001.1,N
1628191155.7,286046999.1,N
1628191175.5,286046998.3,N
1628191195.4,286046998.6,N
1628191215.2,286047000.8,N
1628191235.1,286047001.0,N
1628191236.0,286047001.0,N
1628191255.8,286046998.4,N
1628191275.6,286047001.0,N
1628191295.5,286047000.7,N
1628191315.3,286046999.7,N
1628191335.2,286047000.4,N
1628191355.9,286047000.6,N
1628191375.7,286046998.2,N
1628191395.6,286047001.2,N
1628191415.4,286046998.2,N
1628191435.2,286046998.3,N
1628191455.1,286047001.2,N
1628191456.0,286047001.2,N
1628191475.8,286046999.1,N
1628191495.7,286046999.1,N
1628191515.5,286046998.8,N
1628191535.3,286047000.4,N
1628191555.2,286046999.8,N
1628191575.0,286047002.5,N
1628191575.9,286047002.5,N
1628191595.7,286047001.8,N
1628191645.6,286047001.9,E
1628191655.5,286047000.9,N
1628191675.4,286047001.0,P
1628191695.2,286046998.1,P
1628191715.0,286046999.5,N
1628191715.9,286046999.5,N
1628191735.8,286046999.2,N
1628191755.6,286046998.4,N
1628191775.4,286046999.5,N
1628191795.3,286046998.7,N
1628191815.1,286046998.9,N
1628191835.9,286046998.8,N
1628191855.7,286046999.3,N
1628191875.5,286046998.9,N
1628191895.4,286046998.1,N
1628191915.2,286046999.0,N
1628191935.0,286046998.3,N
1628191935.9,286046998.3,N
1628191955.8,286047001.1,N
1628191975.6,286046998.5,N
1628191995.5,286046999.3,N
1628192015.3,286046999.6,N
1628192035.1,286046996.8,Y
1628192055.9,286046999.0,P
1628192075.7,286046998.4,P
1628192095.6,286046999.1,N
1628192115.4,286046996.7,Y
1628192135.2,286046999.1,P
1628192155.1,286046999.2,P
1628192156.0,286046999.2,P
1628192175.8,286046996.5,Y
1628192195.7,286047001.2,P
1628192215.5,286047000.8,N
1628192235.3,286047000.1,N
1628192255.2,286047000.7,N
1628192275.0,286047001.0,N
1628192275.9,286047001.0,N
1628192295.7,286046999.1,N
1628192315.6,286046998.8,N
1628192335.4,286046998.7,N
1628192355.3,286046998.5,N
1628192375.1,286047001.0,N
1628192376.0,286047001.0,N
1628192395.8,286047000.2,N
1628192415.7,286046999.8,N
1628192435.5,286046999.9,N
1628192455.3,286047002.8,Y
1628192475.2,286047002.7,P
1628192495.0,286047001.9,N
1628192495.9,286047001.9,N
1628192515.8,286047004.3,Y
1628192535.6,286047004.4,P
1628192555.4,286047003.7,N
1628192575.3,286047005.2,P
1628192595.1,286047005.5,Y
1628192615.9,286047002.6,P
1628192635.7,286047002.5,P
1628192655.5,286047002.1,P
1628192675.4,286047002.8,Y
1628192695.2,286047000.7,P
1628192715.0,286046998.1,N
1628192715.9,286046998.1,N
1628192735.8,286046998.1,N
1628192755.6,286047000.5,N
1628192775.5,286047000.1,N
1628192795.3,286047001.3,N
1628192815.1,286047001.4,N
1628192835.9,286047005.9,Y
1628192855.7,286047006.0,P
1628192875.5,286047005.5,N
1628192895.4,286047005.0,N
1628192915.2,286047005.5,N
1628192935.1,286047005.6,N
1628192936.0,286047005.6,N
1628192955.8,286047003.6,N
1628192975.6,286047003.2,N
1628192995.5,286047003.2,N
1628193015.3,286047005.9,Y
1628193035.2,286047001.1,P
1628193055.9,286047001.2,N
1628193075.7,286046998.3,N
1628193095.6,286047000.9,N
1628193115.4,286047000.4,N
1628193135.2,286047000.8,N
1628193155.1,286047000.6,N
1628193156.0,286047000.6,N
1628193175.8,286047000.8,N
1628193195.7,286046998.5,N
1628193215.5,286046998.5,N
1628193235.3,286046998.8,N
1628193255.2,286046998.2,N
1628193275.0,286047001.2,N
1628193275.9,286047001.2,N
1628193295.7,286046998.2,N
1628193315.6,286047001.0,N
1628193335.4,286047000.9,N
1628193355.3,286047000.3,N
1628193375.1,286047000.1,N
1628193376.0,286047000.1,N
1628193395.8,286047000.3,N
1628193415.7,286047000.5,N
1628193435.5,286047000.3,N
1628193455.3,286046999.9,N
1628193475.2,286047001.1,N
1628193495.0,286046998.3,N
1628193495.9,286046998.3,N
1628193515.8,286046998.6,N
1628193535.6,286046999.4,N
1628193555.4,286046998.8,N
1628193575.3,286046997.0,N
1628193595.1,286046994.9,Y
